Location: Gleizolles
(44.4833°N, 6.7667°E)
Time: 00:42:56
(UTC+00:00)

Vanguard 1 Rocket - Pass Details

Date: 26 June 2024
Orbit: 650 x 4220 km, 34.3° (Epoch: 24 July)

Event Time Altitude Azimuth Distance (km) Brightness Sun altitude
Rises 05:43:56 0° 279° (W) 7,023 11.4 17.5°
Reaches altitude 10° 05:48:22 10° 273° (W) 6,385 11.2 18.3°
Maximum altitude 06:08:53 45° 211° (SSW) 5,061 11.1 21.8°
Drops below altitude 10° 06:31:33 10° 148° (SSE) 6,920 12.3 25.8°
Sets 06:36:44 0° 142° (SE) 7,617 12.5 26.7°
